Terminal Aerodrome Forecast
Issued by NWS

Home | Current Version | Previous Version | Graphics & Text | Print | Product List | Glossary On
Versions: 1 2 3 4 5 6 7 8 9 10 11 12 13
000
FTUS42 KMHX 271720
TAFISO
TAF
KISO 271720Z 2718/2818 23006KT P6SM SCT030
     FM271900 20009KT P6SM VCTS BKN050CB BKN110
     FM280200 18008KT P6SM BKN050 BKN060
     FM280600 VRB04KT P6SM BKN050 BKN200
      AMD LTD TO CLD VIS AND WIND=

USA.gov is the U.S. government's official web portal to all federal, state and local government web resources and services.